Regional Weather Roundup
Issued by NWS

Home | Current Version | Previous Version | Text Only | Print | Product List | Glossary Off
Versions: 1 2 3 4 5 6 7 8 9 10 11 12 13 14 15 16 17 18 19 20 21 22 23 24 25 26 27 28 29 30 31 32 33 34 35 36 37 38 39 40 41 42 43 44 45 46 47 48 49 50

000
ASUS43 KDTX 112101
RWRMI
MICHIGAN HOURLY REGIONAL WEATHER ROUNDUP
NATIONAL WEATHER SERVICE DETROIT/PONTIAC MI
400 PM EST MON DEC 11 2017

NOTE: "FAIR" INDICATES FEW OR NO CLOUDS BELOW 12,000 FEET WITH NO
SIGNIFICANT WEATHER AND/OR OBSTRUCTION TO VISIBILITY.

MIZ047>049-052>055-059>063-066>070-074>076-081>083-112200-
SOUTHEAST LOWER MICHIGAN

CITY           SKY/WX    TMP DP  RH WIND       PRES   REMARKS
ADRIAN         FLURRIES  30  24  78 S8        29.79F WCI  22
ANN ARBOR      CLOUDY    29  24  82 SE9       29.79F WCI  20
BAD AXE        CLOUDY    21  17  83 SE7       29.82F WCI  13
CARO           CLOUDY    23  19  85 SE7       29.79F WCI  15
DETROIT CITY   CLOUDY    28  25  88 S8        29.84F WCI  20
DETROIT        CLOUDY    30  25  81 S9        29.83F WCI  22
FLINT          CLOUDY    28  24  85 S8        29.79F WCI  20
GROSSE ILE     CLOUDY    31  26  80 S13       29.82F WCI  21
HILLSDALE      CLOUDY    30  23  74 SE8       29.74F WCI  23
HOWELL         CLOUDY    28  26  91 SE9       29.76F WCI  20

CITY           SKY/WX    TMP DP  RH WIND       PRES   REMARKS
JACKSON        CLOUDY    30  23  75 SE10      29.75F WCI  21
LAMBERTVILLE   CLOUDY    32  24  71 S5        29.81F WCI  27
LANSING        CLOUDY    30  24  78 S8        29.75F WCI  22
LAPEER         CLOUDY    23  20  88 SE7       29.81F WCI  15
MASON          CLOUDY    31  22  72 S7        29.75F WCI  24
MONROE         CLOUDY    31  24  77 SE6       29.81F WCI  25
MT. CLEMENS    CLOUDY    28  28  99 S10       29.81F WCI  19
PONTIAC        CLOUDY    26  26 100 SE6       29.78F FOG     WCI  19
PORT HOPE        N/A     21  16  81 SE7       29.82F WCI  12
PORT HURON     CLOUDY    25  21  86 SE5       29.84F FOG     WCI  19
TRI CITIES     CLOUDY    25  22  88 SE8       29.79F WCI  16
MIDLAND        CLOUDY    25  20  83 E5        29.78F WCI  19
TROY           CLOUDY    30  26  87 S8        29.83F WCI  22
SAGINAW HB     CLOUDY    27  23  86 SE10      29.78F WCI  17
$$
MIZ043>046-050>051-056>058-064>065-071>073-077>080-112200-
SOUTHWEST LOWER MICHIGAN

CITY           SKY/WX    TMP DP  RH WIND       PRES   REMARKS
BATTLE CREEK   CLOUDY    30  23  75 S12       29.74F WCI  20
BENTON HARBOR  CLOUDY    32  23  69 SE9       29.70F WCI  24
BIG RAPIDS     CLOUDY    25  23  93 SE7       29.71F FOG     WCI  17
COLDWATER      CLOUDY    32  25  76 SE9       29.74F WCI  24
HOLLAND        CLOUDY    32  23  69 SE8       29.71F WCI  25
GRAND RAPIDS   CLOUDY    30  25  81 SE8       29.72F WCI  22
IONIA          CLOUDY    30  24  78 S8        29.73F WCI  22
KALAMAZOO      SNOW      30  26  85 SE6       29.73F VSB 1/4 WCI  24
LUDINGTON      CLOUDY    26  25  94 SE6       29.70F WCI  20
MARSHALL       CLOUDY    30  23  74 S7        29.74F WCI  23
MOUNT PLEASANT CLOUDY    25  21  85 SE6       29.75F WCI  18
MUSKEGON       CLOUDY    30  25  81 SE12      29.71F WCI  20
SOUTH HAVEN    LGT SNOW  31  27  86 SE6       29.71F WCI  25
$$
MIZ016>042-112200-
NORTHERN LOWER MICHIGAN

CITY           SKY/WX    TMP DP  RH WIND       PRES   REMARKS
ALPENA         LGT SNOW  20  18  92 SE7       29.78F FOG     WCI  11
BEAVER ISLAND  LGT SNOW  27  25  92 SE6       29.70F WCI  20
BELLAIRE       FLURRIES  23  20  89 S6        29.73F WCI  16
CADILLAC       LGT SNOW  20  20  98 SE6       29.69F WCI  13
CHARLEVOIX     LGT SNOW  23  20  89 SE6       29.74F WCI  16
FRANKFORT      CLOUDY    26  25  95 S5        29.71F FOG     WCI  20
GAYLORD        LGT SNOW  19  14  81 S9        29.70S WCI   8
GRAYLING       LGT SNOW  20  17  86 SE7       29.73F WCI  11
HARBOR SPRINGS LGT SNOW  21  19  92 E3        29.73F VSB 1
HOUGHTON LAKE  CLOUDY    20  17  88 SE6       29.73F FOG     WCI  12
MANISTEE       MIX PCPN  25  24  96 CALM      29.72S FOG
OSCODA         LGT SNOW  23  18  82 S7        29.79F WCI  14
PELLSTON       LGT SNOW  21  17  84 SE8       29.74S FOG     WCI  11
ROGERS CITY    LGT SNOW  20  17  87 SE7       29.77F WCI  11
TRAVERSE CITY  LGT SNOW  23  20  88 S6        29.72F WCI  16
$$
MIZ007>008-015-112200-
EASTERN UPPER MICHIGAN

CITY           SKY/WX    TMP DP  RH WIND       PRES   REMARKS
KINROSS        LGT SNOW  19  17  92 E6        29.73F VSB 3/4 WCI  11
MACKINAC ISLAN LGT SNOW  23  19  84 S12G20    29.73F VSB 3/4 WCI  11
NEWBERRY       SNOW      21  20  96 CALM      29.70F VSB 1/2
S. S. MARIE    SNOW      17  13  84 E7        29.74F VSB 1/2 WCI   8
MUNISING         N/A     25  22  88 S3        29.70F
$$
MIZ004>006-011>014-085-112200-
CENTRAL UPPER MICHIGAN

CITY           SKY/WX    TMP DP  RH WIND       PRES   REMARKS
MANISTIQUE     LGT SNOW  24  19  81 N3        29.70F
ESCANABA       FLURRIES  26  21  81 W10       29.72S WCI  16
MENOMINEE      CLOUDY    25  23  92 VRB3      29.75R
SAWYER-GWINN   LGT SNOW  21  18  86 W8        29.68F WCI  12
$$
MIZ001>003-009>011-084-112200-
WESTERN UPPER MICHIGAN

CITY           SKY/WX    TMP DP  RH WIND       PRES   REMARKS
IRON MOUNTAIN  CLOUDY    23  18  81 NW6       29.69S WCI  16
HOUGHTON       LGT SNOW  22  16  78 NW24G37   29.70R WCI   5
COPPER HARBOR    N/A     25  20  81 N33G43    29.70R WCI   7
IRONWOOD       FLURRIES  25  20  81 NW14G22   29.81R WCI  13
$$

ABBREVIATIONS USED IN REMARKS
   TC - TEMPERATURE IN CELSIUS
  WCI - WIND CHILL INDEX
   HX - HEAT INDEX
  VSB - VISIBILITY





USA.gov is the U.S. government's official web portal to all federal, state and local government web resources and services.